Location: Bottens
(46.6171°N, 6.6605°E)
Time: 19:58:27
(UTC+00:00)

USA 229 - Pass Details

Date: 20 June 2021
Orbit: 956 x 1256 km, 63.5° (Epoch: 20 July)

Event Time Altitude Azimuth Distance (km) Brightness Sun altitude
Exits shadow 00:22:33 29° 217° (SW) 1,749 4.3 -19.1°
Maximum altitude 00:26:09 89° 131° (SE) 1,027 3.5 -19.0°
Drops below altitude 10° 00:33:02 10° 40° (NE) 2,920 7.0 -18.7°
Sets 00:35:47 0° 40° (NE) 3,925 7.8 -18.6°
